| time (UTC) | temp F | wind direction | speed knots | gust knots | rain 1hr in | rain 24hr in | rain mn in | humidity % | barometer mb |
| 20260507083028 | 55 | 188 | 1.7 | 6.1 | 0.00 | 0.10 | 0.00 | 79 | 1018.0 |
| 20260507081528 | 55 | 169 | 1.7 | 7.0 | 0.00 | 0.10 | 0.00 | 79 | 1017.8 |
| 20260507080028 | 55 | 141 | 2.6 | 8.7 | 0.00 | 0.10 | 0.00 | 80 | 1017.6 |
| 20260507074528 | 55 | 192 | 2.6 | 7.0 | 0.00 | 0.10 | 0.00 | 80 | 1017.5 |
| 20260507073031 | 56 | 172 | 3.5 | 7.8 | 0.00 | 0.10 | 0.00 | 79 | 1017.4 |
| 20260507071532 | 56 | 188 | 4.3 | 7.8 | 0.00 | 0.10 | 0.00 | 79 | 1017.6 |
| 20260507070032 | 56 | 172 | 3.5 | 6.1 | 0.00 | 0.10 | 0.00 | 79 | 1017.6 |
| 20260507064544 | 56 | 178 | 1.7 | 7.8 | 0.00 | 0.10 | 0.00 | 78 | 1017.4 |
| 20260507063030 | 56 | 187 | 2.6 | 5.2 | 0.00 | 0.10 | 0.00 | 78 | 1017.2 |
| 20260507061530 | 57 | 154 | 2.6 | 7.0 | 0.00 | 0.10 | 0.00 | 77 | 1017.3 |
| 20260507060028 | 57 | 176 | 3.5 | 7.8 | 0.00 | 0.10 | 0.00 | 76 | 1017.0 |
| 20260507054529 | 57 | 213 | 4.3 | 7.8 | 0.00 | 0.10 | 0.00 | 76 | 1017.2 |
| 20260507053028 | 58 | 204 | 3.5 | 7.8 | 0.00 | 0.10 | 0.00 | 75 | 1017.2 |
| 20260507051528 | 58 | 186 | 4.3 | 12.2 | 0.00 | 0.10 | 0.00 | 75 | 1017.3 |
| 20260507050038 | 58 | 202 | 3.5 | 7.8 | 0.00 | 0.10 | 0.00 | 76 | 1017.3 |
| 20260507044527 | 59 | 179 | 3.5 | 9.6 | 0.00 | 0.10 | 0.10 | 75 | 1017.2 |
| 20260507043027 | 59 | 160 | 5.2 | 10.4 | 0.00 | 0.10 | 0.10 | 75 | 1017.5 |
| 20260507041530 | 59 | 169 | 3.5 | 10.4 | 0.00 | 0.10 | 0.10 | 75 | 1017.7 |
| 20260507040029 | 59 | 139 | 5.2 | 9.6 | 0.00 | 0.10 | 0.10 | 75 | 1017.7 |
| 20260507034529 | 59 | 124 | 6.1 | 10.4 | 0.00 | 0.10 | 0.10 | 75 | 1017.7 |
| 20260507033028 | 59 | 147 | 4.3 | 10.4 | 0.00 | 0.10 | 0.10 | 75 | 1017.6 |
| 20260507031527 | 59 | 182 | 3.5 | 13.0 | 0.00 | 0.10 | 0.10 | 75 | 1017.5 |
| 20260507030030 | 59 | 175 | 5.2 | 12.2 | 0.00 | 0.10 | 0.10 | 75 | 1017.2 |
| 20260507024529 | 59 | 133 | 2.6 | 8.7 | 0.00 | 0.10 | 0.10 | 76 | 1017.0 |
| 20260507023026 | 59 | 191 | 4.3 | 10.4 | 0.00 | 0.10 | 0.10 | 76 | 1016.7 |
| 20260507021526 | 59 | 165 | 2.6 | 9.6 | 0.00 | 0.10 | 0.10 | 76 | 1016.5 |
| 20260507020031 | 59 | 165 | 5.2 | 9.6 | 0.00 | 0.10 | 0.10 | 76 | 1016.1 |
| 20260507014527 | 59 | 123 | 6.1 | 18.2 | 0.00 | 0.10 | 0.10 | 76 | 1016.0 |
| 20260507013027 | 59 | 155 | 4.3 | 10.4 | 0.00 | 0.10 | 0.10 | 77 | 1015.7 |
| 20260507011531 | 59 | 163 | 5.2 | 16.5 | 0.00 | 0.10 | 0.10 | 77 | 1015.4 |
| 20260507010038 | 59 | 204 | 3.5 | 10.4 | 0.00 | 0.10 | 0.10 | 77 | 1015.3 |
| 20260507004532 | 59 | 163 | 3.5 | 10.4 | 0.00 | 0.10 | 0.10 | 77 | 1015.2 |
| 20260507003028 | 59 | 146 | 5.2 | 13.0 | 0.00 | 0.10 | 0.10 | 77 | 1015.0 |
| 20260507000029 | 59 | 144 | 6.1 | 12.2 | 0.00 | 0.10 | 0.10 | 76 | 1014.7 |
| 20260506234530 | 59 | 223 | 4.3 | 9.6 | 0.00 | 0.10 | 0.10 | 76 | 1014.6 |
| 20260506233030 | 59 | 175 | 5.2 | 12.2 | 0.00 | 0.10 | 0.10 | 77 | 1014.6 |
| 20260506231528 | 59 | 211 | 4.3 | 11.3 | 0.00 | 0.10 | 0.10 | 77 | 1014.3 |
| 20260506230032 | 60 | 153 | 7.0 | 13.9 | 0.00 | 0.10 | 0.10 | 75 | 1013.9 |
| 20260506224535 | 59 | 111 | 2.6 | 10.4 | 0.00 | 0.10 | 0.10 | 75 | 1014.5 |
| 20260506223027 | 59 | 165 | 5.2 | 10.4 | 0.00 | 0.10 | 0.10 | 75 | 1014.3 |
| 20260506221529 | 59 | 162 | 5.2 | 10.4 | 0.00 | 0.10 | 0.10 | 75 | 1013.9 |
| 20260506220037 | 59 | 188 | 5.2 | 11.3 | 0.00 | 0.10 | 0.10 | 74 | 1013.9 |
| 20260506214528 | 60 | 144 | 5.2 | 11.3 | 0.00 | 0.10 | 0.10 | 74 | 1013.9 |
| 20260506213029 | 60 | 172 | 6.1 | 10.4 | 0.00 | 0.10 | 0.10 | 73 | 1013.6 |
| 20260506211534 | 61 | 88 | 3.5 | 8.7 | 0.00 | 0.10 | 0.10 | 72 | 1014.0 |
| 20260506210033 | 61 | 152 | 3.5 | 7.8 | 0.00 | 0.10 | 0.10 | 71 | 1013.9 |
| 20260506204556 | 61 | 157 | 2.6 | 10.4 | 0.00 | 0.10 | 0.10 | 74 | 1014.2 |
| 20260506203026 | 60 | 161 | 3.5 | 10.4 | 0.00 | 0.10 | 0.10 | 74 | 1014.1 |
| 20260506201536 | 59 | 141 | 5.2 | 8.7 | 0.00 | 0.10 | 0.10 | 75 | 1014.9 |
| 20260506200030 | 59 | 131 | 2.6 | 10.4 | 0.00 | 0.10 | 0.10 | 77 | 1014.6 |
| 20260506194528 | 58 | 70 | 2.6 | 7.8 | 0.00 | 0.10 | 0.10 | 79 | 1014.6 |
| 20260506193028 | 57 | 80 | 1.7 | 5.2 | 0.00 | 0.10 | 0.10 | 79 | 1014.9 |
| 20260506191528 | 57 | 89 | 2.6 | 7.0 | 0.00 | 0.10 | 0.10 | 78 | 1015.2 |
| 20260506190031 | 57 | 142 | 2.6 | 7.8 | 0.00 | 0.10 | 0.10 | 79 | 1015.0 |
| 20260506184527 | 57 | 130 | 4.3 | 10.4 | 0.00 | 0.10 | 0.10 | 79 | 1014.7 |
| 20260506183025 | 56 | 139 | 4.3 | 8.7 | 0.00 | 0.10 | 0.10 | 80 | 1013.8 |
| 20260506181528 | 56 | 150 | 7.0 | 13.9 | 0.00 | 0.10 | 0.10 | 81 | 1013.3 |
| 20260506180033 | 55 | 178 | 5.2 | 12.2 | 0.00 | 0.10 | 0.10 | 82 | 1013.3 |
| 20260506174533 | 55 | 136 | 4.3 | 11.3 | 0.00 | 0.10 | 0.10 | 82 | 1014.0 |
| 20260506173028 | 55 | 153 | 4.3 | 13.0 | 0.00 | 0.10 | 0.10 | 82 | 1014.6 |
| 20260506171539 | 55 | 170 | 3.5 | 11.3 | 0.00 | 0.10 | 0.10 | 82 | 1014.8 |
| 20260506170027 | 54 | 161 | 5.2 | 13.0 | 0.00 | 0.10 | 0.10 | 82 | 1014.3 |
| 20260506164528 | 54 | 159 | 5.2 | 13.0 | 0.01 | 0.10 | 0.10 | 82 | 1014.8 |
| 20260506163028 | 55 | 119 | 4.3 | 8.7 | 0.10 | 0.10 | 0.10 | 82 | 1015.0 |
| 20260506161532 | 55 | 0 | 1.7 | 7.8 | 0.10 | 0.10 | 0.10 | 83 | 1015.1 |
| 20260506160032 | 54 | 280 | 1.7 | 10.4 | 0.10 | 0.10 | 0.10 | 82 | 1014.6 |
| 20260506154533 | 54 | 167 | 7.0 | 13.0 | 0.09 | 0.09 | 0.09 | 79 | 1014.0 |
| 20260506153027 | 54 | 0 | 0.9 | 7.8 | 0.00 | 0.00 | 0.00 | 77 | 1016.5 |
| 20260506151533 | 54 | 73 | 2.6 | 8.7 | 0.00 | 0.00 | 0.00 | 77 | 1015.3 |
| 20260506150028 | 54 | 232 | 1.7 | 12.2 | 0.00 | 0.00 | 0.00 | 77 | 1015.0 |
| 20260506144539 | 54 | 96 | 2.6 | 8.7 | 0.00 | 0.00 | 0.00 | 77 | 1015.1 |
| 20260506143028 | 54 | 146 | 5.2 | 9.6 | 0.00 | 0.00 | 0.00 | 77 | 1014.7 |
| 20260506141530 | 54 | 117 | 4.3 | 10.4 | 0.00 | 0.00 | 0.00 | 76 | 1014.4 |
| 20260506140033 | 54 | 146 | 4.3 | 9.6 | 0.00 | 0.00 | 0.00 | 76 | 1014.0 |
| 20260506134528 | 54 | 89 | 3.5 | 13.0 | 0.00 | 0.00 | 0.00 | 76 | 1014.0 |
| 20260506133031 | 54 | 142 | 3.5 | 9.6 | 0.00 | 0.00 | 0.00 | 77 | 1013.8 |
| 20260506131534 | 54 | 120 | 2.6 | 8.7 | 0.00 | 0.00 | 0.00 | 78 | 1013.6 |
| 20260506130030 | 54 | 111 | 6.1 | 12.2 | 0.00 | 0.00 | 0.00 | 77 | 1013.5 |
| 20260506124533 | 54 | 82 | 4.3 | 11.3 | 0.00 | 0.00 | 0.00 | 76 | 1013.3 |
| 20260506123029 | 54 | 167 | 3.5 | 12.2 | 0.00 | 0.00 | 0.00 | 76 | 1013.2 |
| 20260506121527 | 55 | 166 | 5.2 | 12.2 | 0.00 | 0.00 | 0.00 | 75 | 1013.0 |
| 20260506120029 | 55 | 172 | 5.2 | 12.2 | 0.00 | 0.00 | 0.00 | 74 | 1013.1 |
| 20260506114536 | 55 | 171 | 5.2 | 11.3 | 0.00 | 0.00 | 0.00 | 73 | 1012.5 |
| 20260506113028 | 55 | 122 | 2.6 | 12.2 | 0.00 | 0.00 | 0.00 | 73 | 1012.3 |
| 20260506111529 | 55 | 60 | 6.1 | 17.4 | 0.00 | 0.00 | 0.00 | 72 | 1012.0 |
| 20260506110033 | 56 | 135 | 4.3 | 11.3 | 0.00 | 0.00 | 0.00 | 71 | 1011.9 |
| 20260506104526 | 57 | 98 | 4.3 | 9.6 | 0.00 | 0.00 | 0.00 | 71 | 1011.6 |
| 20260506103029 | 57 | 148 | 3.5 | 10.4 | 0.00 | 0.00 | 0.00 | 70 | 1011.1 |